Find Starlink 32189

NORAD ID: 60317 Int'l Des: 2024-133 Owner: SPXS Country: US Constellation: starlink operational
LEOCIRCULAR

当前视图

正在加载3D地球...

About Starlink 32189

Starlink 32189 (NORAD 60317) is a starlink constellation satellite (v2 mini) launched Jul 28, 2024 by SPXS of US. It operates in LEO, CIRCULAR orbit with a mass of 730.00 kg.

关于 Starlink 32189

正在加载描述...

即将过境

Passes for default location (London). Set your location on the main map for personalized predictions.

高度历史

Loading altitude history...

两行轨道根数

1 60317U 24133S 26173.27938081 .00001418 00000-0 59996-4 0 9993
2 60317 53.1591 171.2417 0001187 84.2338 275.8798 15.30200952107743
Epoch: Jun 22, 2026 • Age: 29 hours

当前状态

高度 484.3 km
速度 7.62 km/s
星下点 -28.45°S, 80.19°W
发射日期 Jul 28, 2024
运行时间 1.9 years
类型 internet

技术详情

分类 Payload
质量 730.00 kg
干质量 700.00 kg
总质量 730.00 kg
长度 0.30 m
直径 4.10 m
跨度 29.00 m
形状 Box + pan
制造商 SPXS
平台类型 Starlink V2M
阶段状态 In Orbit
所有者/国家 SPXS/US

Most Searched